World > North America > United States > Illinois > Carlinville  

Carlinville, IL Hourly Weather Updates

Feedback E-mail the Weather

Quick Clicks

Carlinville, IL Weather Maps

°F °C°F °C
Carlinville Weather Map
UTC Time: 4/18/2024, 00:53
Your Time:

Carlinville, IL Regional Weather

Expires:202404180100;;926159
ASUS43 KLOT 180010
RWRIL 

ILLINOIS REGIONAL WEATHER ROUNDUP
NATIONAL WEATHER SERVICE CHICAGO/ROMEOVILLE IL
700 PM CDT WED APR 17 2024

NOTE: "FAIR" INDICATES FEW OR NO CLOUDS BELOW 12,000 FEET WITH NO
SIGNIFICANT WEATHER AND/OR OBSTRUCTIONS TO VISIBILITY.

* THESE STATIONS ARE NOT UNDER NWS QUALITY CONTROL. THEY ALSO MAY NOT
  REPORT WEATHER SUCH AS PRECIPITATION OR FOG.


ILZ028>032-037-038-041>044-048-051>054-059>061-180100-
CENTRAL ILLINOIS
  
CITY           SKY/WX    TMP DP  RH WIND       PRES   REMARKS
PONTIAC        CLOUDY    60  44  55 W24G32    29.90R TC  16           
BLOOMINGTON    CLEAR     61  47  59 W18       29.92R TC  16           
DECATUR        CLEAR     69  49  48 W14G21    29.91R TC  21           
PEORIA         CLEAR     63  45  51 NW9G21    29.92R TC  17           
6HR MIN TEMP:  60; 6HR MAX TEMP:  65;                                

LACON*         MOCLDY    60  44  55 NW12G26   29.90R TC  16           
LINCOLN*       CLEAR     67  47  49 W6        29.92R TC  19           
SPRINGFIELD    CLEAR     69  46  43 W14       29.92R TC  21           
6HR MIN TEMP:  66; 6HR MAX TEMP:  72;                                

TAYLORVILLE    CLEAR     70  45  40 MISG      29.93R TC  21           
$$


SKY/WX - Weather  TMP - Temperature  DP - Dew Point  RH - Humidity
WIND - Wind Direction/Speed PRES - Barometric Pressure VSB - Visibility
WCI - Wind Chill Index E13G22 Wind - East Wind 13 mph/Gusts of 22 mph

Trending Headlines

Trending Entertainment Headlines

Carlinville Radar Loop

Use the map search tool if you want to place a location marker on the radar map...

Carlinville Quick Facts

National Two Day Weather Forecast


E-mail the Carlinville Weather Forecast

Voice your opinion or tell us about page issues...